Satellite-Ground Cal/Val Region Overpasses Predictions

Prediction of Satellite NPP Overpassing Cal/Val Region: PacNW

Region Location: (Latitude: 10.00, Longitude: 139.50) to (Latitude: 22.70, Longitude: 165.60).

Table of predicted overpasses for the next 14.0 days since TLE Epoch: 11/26/2022
Interval Starting Time Starting Location Ending Time Ending Location
1 11/26/2022 02:17:00 ( 18.43, 164.32) 11/26/2022 02:18:12 ( 22.65, 163.28)
2 11/26/2022 03:56:07 ( 10.04, 140.91) 11/26/2022 03:57:50 ( 16.09, 139.50)
3 11/26/2022 14:46:30 ( 22.66, 163.53) 11/26/2022 14:50:05 ( 10.04, 160.52)
4 11/27/2022 03:37:04 ( 10.00, 145.68) 11/27/2022 03:40:40 ( 22.68, 142.66)
5 11/27/2022 14:30:40 ( 11.37, 165.59) 11/27/2022 14:31:03 ( 10.02, 165.28)
6 11/27/2022 16:08:57 ( 22.69, 142.93) 11/27/2022 16:12:33 ( 10.01, 139.91)
7 11/28/2022 03:18:01 ( 10.02, 150.44) 11/28/2022 03:21:37 ( 22.70, 147.42)
8 11/28/2022 15:49:54 ( 22.67, 147.69) 11/28/2022 15:53:29 ( 10.05, 144.68)
9 11/29/2022 02:58:59 ( 10.04, 155.20) 11/29/2022 03:02:34 ( 22.66, 152.19)
10 11/29/2022 15:30:52 ( 22.65, 152.45) 11/29/2022 15:34:27 ( 10.03, 149.44)
11 11/30/2022 02:39:56 ( 10.05, 159.96) 11/30/2022 02:43:31 ( 22.68, 156.95)
12 11/30/2022 15:11:48 ( 22.69, 157.22) 11/30/2022 15:15:24 ( 10.01, 154.20)
13 12/01/2022 02:20:53 ( 10.01, 164.73) 12/01/2022 02:24:29 ( 22.70, 161.71)
14 12/01/2022 14:52:46 ( 22.67, 161.98) 12/01/2022 14:56:21 ( 10.05, 158.97)
15 12/02/2022 03:43:20 ( 10.04, 144.12) 12/02/2022 03:46:55 ( 22.67, 141.11)
16 12/02/2022 14:35:03 ( 17.96, 165.59) 12/02/2022 14:37:18 ( 10.03, 163.73)
17 12/02/2022 16:15:13 ( 22.64, 141.36) 12/02/2022 16:17:23 ( 15.02, 139.51)
18 12/03/2022 03:24:17 ( 10.01, 148.89) 12/03/2022 03:27:53 ( 22.69, 145.87)
19 12/03/2022 15:56:10 ( 22.68, 146.13) 12/03/2022 15:59:46 ( 10.00, 143.11)
20 12/04/2022 03:05:15 ( 10.03, 153.65) 12/04/2022 03:08:50 ( 22.65, 150.64)
21 12/04/2022 15:37:07 ( 22.66, 150.89) 12/04/2022 15:40:42 ( 10.04, 147.89)
22 12/05/2022 02:46:12 ( 10.05, 158.41) 12/05/2022 02:49:47 ( 22.67, 155.40)
23 12/05/2022 15:18:04 ( 22.69, 155.67) 12/05/2022 15:21:40 ( 10.02, 152.64)
24 12/06/2022 02:27:09 ( 10.02, 163.18) 12/06/2022 02:30:45 ( 22.70, 160.16)
25 12/06/2022 14:59:01 ( 22.67, 160.42) 12/06/2022 15:02:36 ( 10.05, 157.42)
26 12/07/2022 02:10:55 ( 19.96, 165.60) 12/07/2022 02:11:41 ( 22.66, 164.93)
27 12/07/2022 03:49:36 ( 10.05, 142.56) 12/07/2022 03:53:11 ( 22.67, 139.55)
28 12/07/2022 14:39:59 ( 22.65, 165.18) 12/07/2022 14:43:34 ( 10.03, 162.18)
29 12/07/2022 16:21:28 ( 22.70, 139.82) 12/07/2022 16:21:49 ( 21.47, 139.51)
30 12/08/2022 03:30:33 ( 10.02, 147.33) 12/08/2022 03:34:09 ( 22.70, 144.31)
31 12/08/2022 16:02:25 ( 22.67, 144.58) 12/08/2022 16:06:00 ( 10.05, 141.57)
32 12/09/2022 03:11:30 ( 10.04, 152.09) 12/09/2022 03:15:05 ( 22.66, 149.08)
